Regional Weather Roundup
Issued by NWS

Home | Current Version | Previous Version | Text Only | Print | Product List | Glossary On
Versions: 1 2 3 4 5 6 7 8 9 10 11 12 13 14 15 16 17 18 19 20 21 22 23 24 25 26 27
000
ASUS44 KJAN 262220
RWRMS

MISSISSIPPI HOURLY WEATHER ROUNDUP
NATIONAL WEATHER SERVICE JACKSON MS
500 PM CDT MON SEP 26 2016

NOTE: "FAIR: INDICATES FEW OR NO CLOUDS BELOW 12,000 FEET WITH NO
SIGNIFICANT WEATHER AND/OR OBSTRUCTIONS TO VISIBILITY.

MSZ001>002-007>008-010>013-018>021-025>028-034>036-262300-
NORTHWEST MISSISSIPPI

CITY           SKY/WX    TMP DP  RH WIND       PRES   REMARKS
BATESVILLE     FAIR      75  59  58 N7        30.04S
CLARKSDALE     SUNNY     75  57  53 NW6G14    30.05S
CLEVELAND      FAIR      78  60  53 NE16G22   30.02F
GREENWOOD      SUNNY     81  62  52 N10       29.98F
GREENVILLE     SUNNY     80  60  50 N16       30.01F
OLIVE BRANCH   PTSUNNY  N/A N/A N/A E7        30.05F
OXFORD         FAIR      75  59  57 N9        30.04F
TUNICA         MOCLDY    73  55  53 N14       30.06S
WINONA         FAIR      85  67  54 N15       29.97F
$$

MSZ003>006-009-014>017-022>024-029>033-037>039-262300-
NORTHEAST MISSISSIPPI

CITY           SKY/WX    TMP DP  RH WIND       PRES   REMARKS
COLUMBUS AFB   SUNNY     87  69  55 NW13      29.95R HX  91
CORINTH        FAIR      73  61  64 N12       30.03S
GOLDN TRIANGLE SUNNY     93  66  40 N12       29.95S HX  96
STARKVILLE     FAIR      88  66  48 N8        29.96S HX  90
TUPELO         SUNNY     83  61  47 N16       29.99S
$$

MSZ040-058-262300-
CENTRAL MISSISSIPPI

CITY           SKY/WX    TMP DP  RH WIND       PRES   REMARKS
JACKSON INTL   MOSUNNY   88  70  55 NW9       29.95S HX  93
JACKSON HAWKNS MOSUNNY   86  69  56 N9G18     29.96F HX  90
MADISON        FAIR      82  70  65 NW13      29.95S
MERIDIAN KEY   MOSUNNY   85  69  58 NW7       29.92S
MERIDIAN NAS   NOT AVBL
VICKSBURG VKS  CLEAR     84  70  61 N10       29.96F
$$

MSZ059>079-262300-
SOUTH MISSISSIPPI

CITY           SKY/WX    TMP DP  RH WIND       PRES   REMARKS
BROOKHAVEN     FAIR     N/A N/A N/A NW9       29.96S
HATTIESBURG    TSTM      82  68  62 SW7       29.93R
LAUREL         FAIR      85  67  54 N10       29.94R
MCCOMB         LGT RAIN  76  68  76 NW10      29.95F
NATCHEZ        SUNNY     82  70  65 N8        29.96S
PINE BELT      MOSUNNY   82  70  65 NE3       29.94F
$$

MSZ080>082-262300-
COASTAL MISSISSIPPI

CITY           SKY/WX    TMP DP  RH WIND       PRES   REMARKS
BILOXI         SUNNY     88  73  61 SW9       29.91F HX  96
PASCAGOULA     MOSUNNY   88  75  65 S5        29.93S HX  97
GULFPORT       MOSUNNY   90  71  53 VRB5      29.91F HX  96
$$

LAZ007>009-015>016-023>026-262300-
NORTHEAST LOUISIANA

CITY           SKY/WX    TMP DP  RH WIND       PRES   REMARKS
BASTROP        FAIR      80  64  57 NE7       30.02F
TALLULAH/VBURG SUNNY     83  67  58 N10G17    29.98F
$$




USA.gov is the U.S. government's official web portal to all federal, state and local government web resources and services.